TimeEST,TemperatureF,Dew PointF,Humidity,Sea Level PressureIn,VisibilityMPH,Wind Direction,Wind SpeedMPH,Gust SpeedMPH,PrecipitationIn,Events,Conditions,WindDirDegrees,DateUTC
12:54 AM,46.9,39.0,74,30.36,10.0,NNE,9.2,-,N/A,,Clear,30,2011-11-06 04:54:00
1:54 AM,46.9,39.0,74,30.36,10.0,NNE,9.2,-,N/A,,Clear,30,2011-11-06 05:54:00
1:54 AM,46.0,39.0,76,30.36,10.0,NNE,8.1,-,N/A,,Clear,20,2011-11-06 06:54:00
2:54 AM,45.0,39.0,80,30.35,10.0,NNE,9.2,-,N/A,,Clear,20,2011-11-06 07:54:00
3:54 AM,45.0,39.0,80,30.36,10.0,NNE,10.4,-,N/A,,Clear,20,2011-11-06 08:54:00
4:54 AM,45.0,39.0,80,30.37,10.0,NNE,10.4,17.3,N/A,,Clear,30,2011-11-06 09:54:00
5:54 AM,45.0,39.0,80,30.39,10.0,NNE,10.4,-,N/A,,Clear,30,2011-11-06 10:54:00
7:54 AM,48.0,39.9,74,30.44,10.0,NNE,10.4,-,N/A,,Overcast,30,2011-11-06 12:54:00
8:54 AM,53.1,41.0,64,30.45,10.0,NE,10.4,18.4,N/A,,Mostly Cloudy,40,2011-11-06 13:54:00
9:54 AM,55.9,43.0,62,30.45,10.0,NE,9.2,-,N/A,,Mostly Cloudy,50,2011-11-06 14:54:00
11:54 AM,63.0,46.0,54,30.41,10.0,North,6.9,-,N/A,,Mostly Cloudy,10,2011-11-06 16:54:00
12:54 PM,64.9,46.9,52,30.38,10.0,Variable,6.9,-,N/A,,Mostly Cloudy,0,2011-11-06 17:54:00
1:54 PM,68.0,48.0,49,30.37,10.0,North,6.9,-,N/A,,Scattered Clouds,10,2011-11-06 18:54:00
2:54 PM,66.9,48.0,51,30.36,10.0,ENE,4.6,-,N/A,,Mostly Cloudy,60,2011-11-06 19:54:00
3:54 PM,68.0,48.0,49,30.35,10.0,NNE,6.9,-,N/A,,Clear,30,2011-11-06 20:54:00
4:54 PM,64.9,48.9,56,30.35,10.0,ENE,3.5,-,N/A,,Clear,60,2011-11-06 21:54:00
5:54 PM,57.0,50.0,77,30.37,10.0,NNE,3.5,-,N/A,,Clear,30,2011-11-06 22:54:00
6:54 PM,52.0,50.0,93,30.38,10.0,Calm,Calm,-,N/A,,Clear,0,2011-11-06 23:54:00
7:54 PM,50.0,48.0,93,30.38,10.0,North,3.5,-,N/A,,Clear,10,2011-11-07 00:54:00
8:54 PM,52.0,48.0,86,30.38,10.0,Calm,Calm,-,N/A,,Clear,0,2011-11-07 01:54:00
9:54 PM,48.0,46.0,93,30.38,10.0,Calm,Calm,-,N/A,,Clear,0,2011-11-07 02:54:00
10:54 PM,46.9,45.0,93,30.37,10.0,Calm,Calm,-,N/A,,Clear,0,2011-11-07 03:54:00